Hourly Weather Rusaky

Today, 22 April, Thursday

Time Temperature Precipitation Wind Pressure Humidity
00:00 +5°C° 0 mm 3 mps 748 mmHg 87%
01:00 +5°C° 0 mm 3 mps 748 mmHg 87%
02:00 +5°C° 0 mm 3 mps 748 mmHg 87%
03:00 +5°C° 0 mm 3 mps 748 mmHg 88%
04:00 +4°C° 0 mm 3 mps 748 mmHg 89%
05:00 +4°C° 0 mm 3 mps 748 mmHg 89%
06:00 +6°C° 0 mm 4 mps 748 mmHg 84%
07:00 +8°C° 0 mm 4 mps 749 mmHg 79%
08:00 +9°C° 0 mm 5 mps 749 mmHg 74%
09:00 +12°C° 0.1 mm 5 mps 749 mmHg 67%
10:00 +14°C° 0.1 mm 6 mps 749 mmHg 60%
11:00 +15°C° 0.1 mm 6 mps 749 mmHg 53%
12:00 +16°C° 0.3 mm 6 mps 749 mmHg 52%
13:00 +16°C° 0.3 mm 6 mps 749 mmHg 50%
14:00 +17°C° 0.3 mm 6 mps 748 mmHg 48%
15:00 +15°C° 0.4 mm 6 mps 748 mmHg 54%
16:00 +14°C° 0.4 mm 5 mps 748 mmHg 60%
17:00 +13°C° 0.4 mm 5 mps 748 mmHg 66%
18:00 +12°C° 0.5 mm 4 mps 748 mmHg 73%
19:00 +11°C° 0.5 mm 3 mps 748 mmHg 80%
20:00 +9°C° 0.5 mm 3 mps 749 mmHg 87%
21:00 +9°C° 0.3 mm 2 mps 748 mmHg 89%
22:00 +9°C° 0.3 mm 2 mps 748 mmHg 91%
23:00 +9°C° 0.3 mm 1 mps 748 mmHg 94%

Tomorrow, 23 April, Friday

Time Temperature Precipitation Wind Pressure Humidity
00:00 +8°C° 0.1 mm 2 mps 748 mmHg 94%
01:00 +7°C° 0.1 mm 3 mps 748 mmHg 93%
02:00 +6°C° 0.1 mm 4 mps 748 mmHg 93%
03:00 +5°C° 0.1 mm 4 mps 749 mmHg 92%
04:00 +4°C° 0.1 mm 3 mps 749 mmHg 91%
05:00 +5°C° 0.1 mm 2 mps 749 mmHg 89%
06:00 +5°C° 0 mm 2 mps 750 mmHg 85%
07:00 +6°C° 0 mm 2 mps 750 mmHg 80%
08:00 +5°C° 0 mm 3 mps 750 mmHg 76%
09:00 +7°C° 0 mm 3 mps 750 mmHg 69%
10:00 +8°C° 0 mm 3 mps 750 mmHg 62%
11:00 +9°C° 0 mm 3 mps 750 mmHg 55%
12:00 +9°C° 0 mm 3 mps 750 mmHg 53%
13:00 +10°C° 0 mm 3 mps 750 mmHg 50%
14:00 +10°C° 0 mm 3 mps 750 mmHg 48%
15:00 +10°C° 0.1 mm 4 mps 750 mmHg 48%
16:00 +10°C° 0.1 mm 4 mps 749 mmHg 49%
17:00 +10°C° 0.1 mm 4 mps 749 mmHg 50%
18:00 +8°C° 0.1 mm 3 mps 749 mmHg 58%
19:00 +5°C° 0.1 mm 3 mps 750 mmHg 65%
20:00 +4°C° 0.1 mm 3 mps 750 mmHg 73%
21:00 +3°C° 0 mm 3 mps 750 mmHg 75%
22:00 +2°C° 0 mm 3 mps 750 mmHg 78%
23:00 +2°C° 0 mm 3 mps 750 mmHg 80%

Day after tomorrow, 24 April, Saturday

Time Temperature Precipitation Wind Pressure Humidity
00:00 +1°C° 0 mm 3 mps 750 mmHg 82%
01:00 +1°C° 0 mm 3 mps 749 mmHg 84%
02:00 +1°C° 0 mm 3 mps 749 mmHg 85%
03:00 0°C° 0 mm 3 mps 749 mmHg 86%
04:00 0°C° 0 mm 3 mps 749 mmHg 86%
05:00 -1°C° 0 mm 4 mps 748 mmHg 87%
06:00 0°C° 0.3 mm 5 mps 749 mmHg 85%
07:00 -1°C° 0.3 mm 6 mps 749 mmHg 83%
08:00 -1°C° 0.3 mm 7 mps 749 mmHg 81%
09:00 0°C° 0.2 mm 7 mps 750 mmHg 76%
10:00 +2°C° 0.2 mm 7 mps 750 mmHg 72%
11:00 +1°C° 0.2 mm 8 mps 750 mmHg 68%
12:00 +4°C° 0.1 mm 7 mps 750 mmHg 61%
13:00 +5°C° 0.1 mm 7 mps 750 mmHg 53%
14:00 +6°C° 0.1 mm 7 mps 751 mmHg 46%
15:00 +6°C° 0 mm 7 mps 751 mmHg 48%
16:00 +5°C° 0 mm 6 mps 751 mmHg 50%
17:00 +5°C° 0 mm 6 mps 751 mmHg 53%
18:00 +5°C° 0 mm 5 mps 751 mmHg 59%
19:00 +4°C° 0 mm 4 mps 752 mmHg 66%
20:00 +2°C° 0 mm 3 mps 752 mmHg 73%
21:00 +2°C° 0 mm 3 mps 752 mmHg 76%
22:00 +1°C° 0 mm 3 mps 752 mmHg 78%
23:00 +1°C° 0 mm 3 mps 752 mmHg 80%

25 April, Sunday

Time Temperature Precipitation Wind Pressure Humidity
00:00 +1°C° 0 mm 3 mps 752 mmHg 82%
01:00 0°C° 0 mm 3 mps 752 mmHg 83%
02:00 -1°C° 0 mm 3 mps 752 mmHg 84%
03:00 -1°C° 0 mm 3 mps 751 mmHg 84%
04:00 -1°C° 0 mm 3 mps 751 mmHg 83%
05:00 -1°C° 0 mm 3 mps 751 mmHg 83%
06:00 +1°C° 0 mm 3 mps 751 mmHg 78%
07:00 +2°C° 0 mm 3 mps 751 mmHg 73%
08:00 +4°C° 0 mm 4 mps 751 mmHg 69%
09:00 +4°C° 0.1 mm 4 mps 751 mmHg 68%
10:00 +5°C° 0.1 mm 4 mps 751 mmHg 66%
11:00 +5°C° 0.1 mm 4 mps 751 mmHg 65%
12:00 +6°C° 0.1 mm 4 mps 751 mmHg 60%
13:00 +6°C° 0.1 mm 5 mps 751 mmHg 55%
14:00 +7°C° 0.1 mm 5 mps 751 mmHg 49%
15:00 +7°C° 0.1 mm 5 mps 751 mmHg 51%
16:00 +6°C° 0.1 mm 5 mps 751 mmHg 53%
17:00 +6°C° 0.1 mm 5 mps 751 mmHg 54%
18:00 +4°C° 0 mm 4 mps 751 mmHg 59%
19:00 +3°C° 0 mm 3 mps 751 mmHg 63%
20:00 +2°C° 0 mm 2 mps 752 mmHg 68%
21:00 +2°C° 0 mm 2 mps 752 mmHg 71%
22:00 +1°C° 0 mm 2 mps 752 mmHg 74%
23:00 +1°C° 0 mm 2 mps 752 mmHg 77%

26 April, Monday

Time Temperature Precipitation Wind Pressure Humidity
00:00 -1°C° 0 mm 2 mps 751 mmHg 78%
01:00 -1°C° 0 mm 2 mps 751 mmHg 80%
02:00 -1°C° 0 mm 3 mps 751 mmHg 82%
03:00 -1°C° 0 mm 3 mps 751 mmHg 82%
04:00 -1°C° 0 mm 3 mps 751 mmHg 83%
05:00 -1°C° 0 mm 3 mps 750 mmHg 83%
06:00 0°C° 0 mm 3 mps 750 mmHg 79%
07:00 +1°C° 0 mm 4 mps 750 mmHg 75%
08:00 +2°C° 0 mm 5 mps 750 mmHg 71%
09:00 +2°C° 0.2 mm 5 mps 750 mmHg 65%
10:00 +3°C° 0.2 mm 5 mps 750 mmHg 59%
11:00 +5°C° 0.2 mm 5 mps 750 mmHg 54%
12:00 +5°C° 0.2 mm 5 mps 750 mmHg 50%
13:00 +5°C° 0.2 mm 6 mps 750 mmHg 47%
14:00 +5°C° 0.2 mm 6 mps 750 mmHg 43%
15:00 +5°C° 0.1 mm 6 mps 750 mmHg 46%
16:00 +6°C° 0.1 mm 5 mps 750 mmHg 48%
17:00 +5°C° 0.1 mm 5 mps 750 mmHg 51%
18:00 +4°C° 0 mm 4 mps 750 mmHg 58%
19:00 +2°C° 0 mm 3 mps 751 mmHg 64%
20:00 +1°C° 0 mm 3 mps 751 mmHg 71%
21:00 0°C° 0 mm 3 mps 751 mmHg 73%
22:00 0°C° 0 mm 3 mps 751 mmHg 74%
23:00 0°C° 0 mm 3 mps 751 mmHg 76%

27 April, Tuesday

Time Temperature Precipitation Wind Pressure Humidity
00:00 -1°C° 0 mm 3 mps 751 mmHg 77%
01:00 -1°C° 0 mm 3 mps 751 mmHg 79%
02:00 -2°C° 0 mm 3 mps 751 mmHg 80%
03:00 -2°C° 0 mm 3 mps 751 mmHg 83%
04:00 -2°C° 0 mm 3 mps 751 mmHg 85%
05:00 -2°C° 0 mm 3 mps 751 mmHg 88%
06:00 0°C° 0 mm 3 mps 751 mmHg 79%
07:00 +2°C° 0 mm 3 mps 751 mmHg 70%
08:00 +5°C° 0 mm 3 mps 752 mmHg 62%
09:00 +7°C° 0 mm 3 mps 751 mmHg 56%
10:00 +8°C° 0 mm 3 mps 751 mmHg 51%
11:00 +10°C° 0 mm 3 mps 751 mmHg 45%
12:00 +10°C° 0 mm 4 mps 751 mmHg 43%
13:00 +11°C° 0 mm 4 mps 750 mmHg 41%
14:00 +12°C° 0 mm 4 mps 750 mmHg 38%
15:00 +11°C° 0 mm 4 mps 749 mmHg 41%
16:00 +11°C° 0 mm 3 mps 749 mmHg 43%
17:00 +11°C° 0 mm 3 mps 749 mmHg 45%
18:00 +10°C° 0 mm 3 mps 749 mmHg 52%
19:00 +8°C° 0 mm 3 mps 748 mmHg 58%
20:00 +7°C° 0 mm 3 mps 748 mmHg 64%
21:00 +5°C° 0 mm 3 mps 748 mmHg 67%
22:00 +5°C° 0 mm 3 mps 747 mmHg 70%
23:00 +5°C° 0 mm 4 mps 747 mmHg 73%
Show more